Tracking 30258 objects as of 19-Feb-2025
HD Live streaming from Space Station
objects crossing your sky now

OBJECT D

Track OBJECT D now!
10-day predictions


NORAD ID: 61230
Int'l Code: 2024-173D
Perigee: 456.7 km
Apogee: 471.5 km
Inclination: 97.4 °
Period: 93.7 minutes
Semi major axis: 6835 km
RCS: Unknown
Launch date: September 24, 2024
Source: People's Republic of China (PRC)
Launch site: Yellow Sea Launch Area, China (YSLA)
Your satellite tracking list
Your tracking list is empty




NASA's NSSDC Master Catalog

Two Line Element Set (TLE):
1 61230U 24173D   25050.18702779  .00048207  00000-0  13534-2 0  9991
2 61230  97.3870 128.4355 0010847 120.7566 239.4748 15.36338518 22636
Source of the keplerian elements: AFSPC